Regional Weather Roundup
Issued by NWS

Home | Current Version | Previous Version | Text Only | Print | Product List | Glossary Off
Versions: 1 2 3 4 5 6 7 8 9 10 11 12 13 14 15 16 17 18 19 20 21 22 23 24 25 26 27 28 29 30 31 32 33 34 35 36 37 38 39 40 41 42 43 44 45 46 47 48 49 50

000
ASUS43 KMPX 220101
RWRMN
WEATHER ROUNDUP FOR MINNESOTA
NATIONAL WEATHER SERVICE TWIN CITIES/CHANHASSEN MN
700 PM CST SUN JAN 21 2018


NOTE: "FAIR" INDICATES FEW OR NO CLOUDS BELOW 12,000 FEET WITH NO
SIGNIFICANT WEATHER AND/OR OBSTRUCTIONS TO VISIBILITY. N/A MEANS
CURRENT SKY AND/OR WEATHER CONDITIONS ARE NOT AVAILABLE.

MNZ060>063-068>070-220200-
   Twin Cities Metro

CITY           SKY/WX    TMP DP  RH WIND       PRES   REMARKS
TWIN CITIES    CLOUDY    36  30  79 N9G22     29.95S
ST PAUL        CLOUDY    36  29  75 VRB6      29.96F
CRYSTAL        CLOUDY    36  26  67 N7        29.95S
BLAINE         CLOUDY    37  30  75 NE8       29.95F
LAKEVILLE      CLOUDY    34  28  80 NE8       29.93S WCI  27
EDEN PRAIRIE   CLOUDY    37  28  70 N9        29.93R
SOUTH ST PAUL  CLOUDY    37  29  73 N6        29.94S
LAKE ELMO      CLOUDY    36  30  80 N7        29.96F
$$
MNZ001>005-007-008-013>017-022>024-027-028-220200-
   Northwest Minnesota

CITY           SKY/WX    TMP DP  RH WIND       PRES   REMARKS
BEMIDJI        CLOUDY    24  23  97 N5        30.05R FOG     WCI  18
HALLOCK        CLOUDY    21  19  93 N3        30.12S
ROSEAU         CLOUDY    25  21  86 N3        30.11S
WARROAD        CLOUDY    25  21  86 CALM      30.11S
CROOKSTON      FAIR      25  23  93 N6        30.11S WCI  18
FOSSTON        CLOUDY    21  21 100 N9        30.08R WCI  11
DETROIT LAKES  CLOUDY    27  25  93 N9        30.04R WCI  17
MOORHEAD       CLOUDY    25  21  86 N12       30.08R WCI  14
PARK RAPIDS    CLOUDY    26  22  84 N7        30.02R WCI  18
MAHNOMEN       CLOUDY    23  22  96 N9        30.05R WCI  13
$$
MNZ006-009>011-018-025>026-220200-
   North Central Minnesota

CITY           SKY/WX    TMP DP  RH WIND       PRES   REMARKS
BAUDETTE       CLOUDY    25  23  92 N5        30.08S WCI  19
FLAG ISLAND    CLOUDY    25  21  86 N3        30.10R
INTL FALLS     CLOUDY    26  24  92 N6        30.07S FOG     WCI  19
WASKISH        CLOUDY    27  25  93 CALM      30.07S
BIG FORK       CLOUDY    27  25  93 CALM      30.04S FOG
LONGVILLE      CLOUDY    25  23  93 CALM      30.03S
GRAND RAPIDS   CLOUDY    26  24  92 N3        30.05R
CRANE LAKE     CLOUDY    25  23  93 CALM      30.09S
ORR            CLOUDY    25  21  86 CALM      30.03S
COOK           CLOUDY    25  23  93 CALM      30.05S
WALKER         CLOUDY    25  24  95 N6        30.04R WCI  18
$$
MNZ012-019>021-037-220200-
   Northeast Minnesota

CITY           SKY/WX    TMP DP  RH WIND       PRES   REMARKS
DULUTH         FOG       29  28  96 E12       30.02R VSB 1/2 WCI  19
HIBBING        CLOUDY    26  24  92 NE5       30.03R WCI  20
EVELETH        CLOUDY    25  22  88 NE7       30.04R WCI  17
DULUTH HARBOR  CLOUDY    32  30  93 NE17      30.06S WCI  21
TWO HARBORS    CLOUDY    32  27  80 NE8       30.03R HAZE    WCI  25
SILVER BAY     CLOUDY    28  28 100 NE6       30.04R WCI  22
GRAND MARAIS     N/A     29  27  92 E15       30.10R WCI  18
G MARAIS ARPRT CLOUDY    23  19  86 NE3       30.04R FOG
$$
MNZ029>031-032-039>041-046>048-054>057-064-220200-
   West Central Minnesota

CITY           SKY/WX    TMP DP  RH WIND       PRES   REMARKS
FERGUS FALLS   FAIR      27  25  93 N5        30.03R WCI  21
WHEATON        CLOUDY    27  25  93 N9        30.06R WCI  17
MORRIS         CLOUDY    30  28  93 NW7       30.00S WCI  23
ALEXANDRIA     CLOUDY    31  26  82 NE5       29.99S WCI  26
ELBOW LAKE     MOCLDY    29  27  90 N6        30.01S WCI  23
WADENA         FAIR      27  23  86 N7        30.01S WCI  19
GLENWOOD       CLOUDY    30  28  93 N7        29.99S WCI  23
APPLETON       CLOUDY    32  28  86 N8        30.00R WCI  25
BENSON         CLOUDY    34  28  80 N8        30.00S WCI  27
ORTONVILLE     CLOUDY    30  27  86 N9        30.01R WCI  22
MADISON        CLOUDY    34  30  86 N13       29.99S WCI  25
WILLMAR        CLOUDY    34  28  80 NE8       29.99S WCI  27
$$
MNZ033>034-036-042>043-049>051-058-059-220200-
   Central Minnesota

CITY           SKY/WX    TMP DP  RH WIND       PRES   REMARKS
ST CLOUD       CLOUDY    33  29  85 N5        29.98R WCI  29
SAUK CENTRE      N/A     32  27  83 N8        29.99S WCI  25
PAYNESVILLE    CLOUDY    33  31  90 N5        29.98S WCI  29
AITKIN         FAIR      28  25  86 N6        30.00S WCI  22
PINE RIVER     CLOUDY    23  19  86 N8        30.06R WCI  14
BRAINERD       MOCLDY    31  24  75 N8        30.01R WCI  23
STAPLES        FAIR      28  25  86 N6        30.01R WCI  22
LONG PRAIRIE   FAIR      30  27  86 NW5       30.00R FOG     WCI  25
LITTLE FALLS   CLOUDY    32  23  69 CALM      30.00R
LITCHFIELD     CLOUDY    36  30  80 N8        29.96S
BUFFALO        CLOUDY    35  29  78 N9        29.97S WCI  28
MAPLE LAKE     CLOUDY    35  31  87 MISG      29.98R
HUTCHINSON     CLOUDY    35  31  82 N7        29.96S WCI  30
$$
MNZ037-044-045-052-053-220200-
   East Central Minnesota

CITY           SKY/WX    TMP DP  RH WIND       PRES   REMARKS
PRINCETON      CLOUDY    36  28  75 N5        29.98S
MORA           FAIR      34  28  80 CALM      30.01S
CAMBRIDGE      CLOUDY    37  27  65 N5        29.99S
RUSH CITY      CLOUDY    34  28  78 N6        29.99S WCI  29
MOOSE LAKE     FAIR      30  27  86 NE6       30.00R WCI  24
HINCKLEY       CLOUDY    34  30  86 NE6       29.99F WCI  29
CLOQUET        MIX PCPN  28  28 100 E9        30.02R VSB 1/4 WCI  20
MCGREGOR       MOCLDY    30  27  86 N5        30.02R WCI  25
$$
MNZ071>073-080-081-089-090-097-098-220200-
   Southwest Minnesota

CITY           SKY/WX    TMP DP  RH WIND       PRES   REMARKS
MONTEVIDEO     CLOUDY    32  30  93 N10       29.98S WCI  24
GRANITE FALLS  CLOUDY    35  32  88 NW10      29.98R WCI  27
CANBY          CLOUDY    32  29  90 N7        29.99S WCI  26
MARSHALL       CLOUDY    31  29  92 N12       29.95F WCI  22
REDWOOD FALLS  CLOUDY    35  30  82 N5        29.95R WCI  31
OLIVIA         CLOUDY    34  30  86 N10       29.95R WCI  26
PIPESTONE      CLOUDY    32  28  86 NE13G23   29.89R WCI  22
WINDOM         CLOUDY    34  19  55 N14       29.90F WCI  24
WORTHINGTON    CLOUDY    34  29  82 N22       29.87F WCI  22
JACKSON        CLOUDY    34  30  86 NE16      29.89S WCI  23
TRACY          CLOUDY    33  31  93 N12       29.92F WCI  24
SLAYTON        CLOUDY    32  30  91 N14G20    29.91F WCI  22
$$
MNZ065>067-074>077-082>085-091>093-220200-
   South Central Minnesota

CITY           SKY/WX    TMP DP  RH WIND       PRES   REMARKS
MANKATO        CLOUDY    35  29  78 NE12      29.91F WCI  27
NEW ULM        CLOUDY    36  28  75 N8        29.94R
ST JAMES       CLOUDY    36  30  80 N8        29.93R
FAIRMONT       CLOUDY    35  31  85 N9        29.90R WCI  28
FARIBAULT      CLOUDY    36  30  80 N9        29.92S
OWATONNA       CLOUDY    36  30  80 NE10      29.90S
WASECA         CLOUDY    36  32  87 NE13      29.91S
ALBERT LEA     CLOUDY    36  28  75 NE10      29.87F
$$
MNZ078>079-086>088-094>096-220200-
   Southeast Minnesota

CITY           SKY/WX    TMP DP  RH WIND       PRES   REMARKS
ROCHESTER      CLOUDY    36  30  79 NE12      29.89S
RED WING       CLOUDY    37  27  65 CALM      29.93S
STANTON        CLOUDY    36  31  82 N6        29.92S
DODGE CENTER   CLOUDY    36  28  75 NE10      29.89F
WINONA         CLOUDY    39  32  75 N5        29.90S
PRESTON        CLOUDY    36  31  81 NE7       29.89R
$$
ABBREVIATIONS USED IN REMARKS
   TC - TEMPERATURES IN CELSIUS
  WCI - WIND CHILL INDEX
   HX - HEAT INDEX
  VSB - VISIBILITY
$$




USA.gov is the U.S. government's official web portal to all federal, state and local government web resources and services.